Location: Boiro
(42.6475°N, 8.8834°W)
Time: 03:41:39
(UTC+01:00)

Vanguard 2 - Pass Details

Date: 30 November 2021
Orbit: 553 x 2936 km, 32.9° (Epoch: 20 January)

Event Time Altitude Azimuth Distance (km) Brightness Sun altitude
Rises 18:01:19 0° 256° (WSW) 3,620 12.9 -0.5°
Reaches altitude 10° 18:03:35 10° 249° (WSW) 2,905 12.6 -0.9°
Maximum altitude 18:10:28 45° 179° (S) 1,926 9.8 -2.0°
Drops below altitude 10° 18:21:41 10° 112° (ESE) 4,673 11.1 -3.8°
Sets 18:26:24 0° 107° (ESE) 6,035 11.6 -4.6°
